[[{"header":{"parameterUnit":"m.s-1","parameterCategory":1,"la1":30.2991,"la2":30.254,"lo1":-89.0895,"lo2":-89.0444,"dy":0.0017,"dx":0.0017,"nx":28,"ny":28,"refTime":"2025-03-11T21:00:00:Z","depth":0,"parameterNumber":2,"parameterNumberName":"U-component_of_WINDS"},"data":[0,0,0,0,0,0,0,0,0,0,0,0,0,0,0,0,0,0,0,0,0,0,0,0,0,0,0,0,0,0,0,0,0,0,0,0,0,0,0,0,0,0,0,0,0,0,0,0,0,0,0,0,0,0,0,0,0,0,0.6276,0.6277,0,0.6364,0.6365,0.6366,0.6369,0.6368,0.6367,0.6366,0.646,0.6464,0.6467,0,0,0,0,0,0,0,0,0,0,0,0,0,0.6114,0.6117,0.6275,0.6277,0.6278,0.6364,0.6365,0.6366,0.6369,0.6368,0.6367,0.6365,0.6459,0.6463,0.6467,0,0,0,0,0,0,0,0,0,0,0,0,0,0.6191,0.6118,0.6275,0.629,0.6292,0.6363,0.6365,0.6366,0.6369,0.6368,0.6366,0.6365,0.6458,0.6463,0.6468,0.6533,0,0,0.6484,0.6486,0,0,0,0,0,0,0,0,0.6187,0.6197,0.6286,0.6289,0.6291,0.6354,0.6342,0.6422,0.637,0.634,0.6366,0.6364,0.6426,0.6434,0.6454,0.6537,0.6541,0.6485,0.6488,0.649,0.6491,0,0,0,0,0,0,0,0.6182,0.6194,0.6311,0.6288,0.6291,0.6293,0.6302,0.6358,0.6391,0.6343,0.6343,0.6353,0.6427,0.6449,0.6456,0.6542,0.6484,0.6489,0.6492,0.6494,0.6683,0.6685,0,0,0,0,0,0,0.6173,0.6189,0.6308,0.6313,0.6234,0.6297,0.6307,0.6335,0.6391,0.6397,0.6354,0.6353,0.6441,0.645,0.646,0.6539,0.649,0.6495,0.6498,0.6681,0.6683,0.6685,0,0,0,0,0,0,0.6169,0.6183,0.6304,0.6251,0.6267,0.6301,0.6333,0.6338,0.636,0.6399,0.6406,0.637,0.644,0.6452,0.6514,0.6542,0.6497,0.6502,0.6679,0.6682,0.6684,0.6698,0,0,0,0,0,0,0.6165,0.6182,0.6206,0.6252,0.627,0.6356,0.6335,0.6341,0.6368,0.6367,0.6416,0.6423,0.644,0.6506,0.6519,0.6549,0.6506,0.6677,0.668,0.6684,0.6695,0.6701,0.6706,0,0,0,0,0,0.6159,0.6207,0.6207,0.6222,0.63,0.6358,0.6368,0.6385,0.637,0.6395,0.6421,0.6421,0.6537,0.6513,0.6527,0.6559,0.6675,0.6679,0.6683,0.6693,0.67,0.6706,0,0,0,0,0,0,0.6166,0.6214,0.6214,0.6278,0.6314,0.6358,0.639,0.6392,0.6434,0.6431,0.6452,0.6463,0.6525,0.6548,0.652,0.6625,0.6605,0.6612,0.6607,0.6614,0.6619,0.6612,0.6511,0,0,0,0,0,0.6174,0.6216,0.6256,0.6309,0.6326,0.6355,0.6381,0.6391,0.6429,0.6445,0.6475,0.6513,0.6558,0.6587,0.6631,0.6699,0.671,0.6728,0.6733,0.6737,0.6743,0.6781,0.679,0.6699,0.6699,0.6699,0,0,0.6193,0.6224,0.625,0.6311,0.6339,0.6383,0.6368,0.6415,0.6447,0.6452,0.6512,0.6535,0.6579,0.6644,0.6675,0.6666,0.6771,0.6743,0.6746,0.675,0.6787,0.6795,0.6803,0.6702,0.6701,0.6701,0,0,0.625,0.6277,0.6324,0.6353,0.6396,0.6415,0.6426,0.647,0.6485,0.6545,0.655,0.659,0.6667,0.6698,0.6724,0.6792,0.6794,0.6806,0.6834,0.6871,0.6878,0.6884,0.6909,0.6918,0.6812,0.6812,0.6812,0,0.6268,0.6332,0.6349,0.6395,0.6422,0.6427,0.6476,0.6503,0.6559,0.6578,0.6567,0.6664,0.6694,0.6766,0.6783,0.6804,0.6818,0.6801,0.6875,0.6882,0.6888,0.6912,0.6921,0.6813,0.6813,0.6813,0.6813,0,0.6353,0.6398,0.6431,0.6483,0.6514,0.6561,0.6586,0.6616,0.6623,0.6643,0.6705,0.6741,0.6792,0.681,0.6819,0.6884,0.6877,0.6871,0.6851,0.6898,0.6921,0.693,0.6815,0.6815,0.6814,0.6814,0,0,0.6416,0.6476,0.6488,0.6512,0.656,0.6595,0.6643,0.6692,0.6717,0.6755,0.6797,0.6862,0.6856,0.6885,0.6897,0.693,0.6982,0.6919,0.6921,0.693,0.7057,0.7061,0.7072,0.6983,0.6985,0.6986,0.7053,0,0.6478,0.6562,0.6578,0.6651,0.6693,0.6699,0.6741,0.6775,0.6796,0.6835,0.6858,0.6904,0.6892,0.691,0.6942,0.6968,0.7007,0.6964,0.7023,0.7025,0.7012,0.7083,0.7089,0.715,0.7062,0.7063,0.7065,0,0.6561,0.66,0.6677,0.6719,0.6738,0.6775,0.6821,0.6858,0.6898,0.6911,0.6943,0.6952,0.7003,0.6981,0.7052,0.7022,0.7047,0.7064,0.7067,0.7073,0.7047,0.7092,0.717,0.7179,0.7079,0.7078,0.7077,0,0.6599,0.6671,0.6727,0.6747,0.6798,0.6824,0.6846,0.6884,0.6912,0.6953,0.6972,0.7018,0.7044,0.7081,0.7102,0.7084,0.7172,0.7151,0.7185,0.7184,0.7203,0.7202,0.7287,0.7219,0.7219,0.7219,0.7219,0,0.6667,0.6714,0.6745,0.6779,0.6832,0.6851,0.6903,0.6926,0.696,0.6999,0.7007,0.7045,0.707,0.7112,0.7129,0.7186,0.7197,0.721,0.7214,0.7209,0.7208,0.7226,0.7223,0.7221,0.7221,0.722,0.722,0,0.6719,0.6741,0.6802,0.6844,0.6856,0.6894,0.6931,0.6965,0.6985,0.7035,0.7048,0.7081,0.7129,0.7154,0.7216,0.7227,0.7292,0.7293,0.7278,0.7279,0.7311,0.7308,0.7411,0.7426,0.7348,0.7349,0.735,0,0.676,0.6796,0.6842,0.6869,0.6891,0.6934,0.6962,0.6983,0.7012,0.706,0.7089,0.7138,0.7178,0.7256,0.7286,0.7333,0.7336,0.7369,0.7343,0.7338,0.7337,0.7335,0.7339,0.7374,0.7374,0.7375,0.7375,0,0.6831,0.684,0.688,0.6925,0.6958,0.6994,0.703,0.7051,0.7077,0.7111,0.716,0.7191,0.7253,0.7302,0.7352,0.7376,0.7381,0.7383,0.7393,0.7389,0.7379,0.7385,0.729,0.7381,0.738,0.738,0.738,0.7379,0.6879,0.6912,0.6949,0.6994,0.7022,0.7055,0.7089,0.7113,0.7155,0.7206,0.7216,0.7268,0.7308,0.7374,0.74,0.7443,0.7436,0.7451,0.7455,0.7458,0.746,0.7372,0.7452,0.7452,0.7452,0.7452,0.7452,0,0.6951,0.6975,0.7016,0.7065,0.71,0.71,0.7139,0.7169,0.7215,0.7251,0.729,0.7347,0.7395,0.7428,0.7477,0.7504,0.7508,0.7516,0.7515,0.7521,0.7463,0.7449,0.7513,0.7513,0.7513,0.7513,0.7513,0.7513,0.6992,0.7047,0.7061,0.713,0.7155,0.7205,0.7228,0.7259,0.7288,0.7351,0.739,0.7411,0.7446,0.7497,0.7541,0.755,0.7568,0.7577,0.7586,0.7531,0.7525,0.7518,0.7506,0.758,0.758,0.764,0.764,0.7641]},{"header":{"parameterUnit":"m.s-1","parameterCategory":1,"la1":30.2991,"la2":30.254,"lo1":-89.0895,"lo2":-89.0444,"dy":0.0017,"dx":0.0017,"nx":28,"ny":28,"refTime":"2025-03-11T21:00:00:Z","depth":0,"parameterNumber":3,"parameterNumberName":"V-component_of_WINDS"},"data":[0,0,0,0,0,0,0,0,0,0,0,0,0,0,0,0,0,0,0,0,0,0,0,0,0,0,0,0,0,0,0,0,0,0,0,0,0,0,0,0,0,0,0,0,0,0,0,0,0,0,0,0,0,0,0,0,0,0,2.9658,2.9658,0,2.9709,2.971,2.971,2.9706,2.9705,2.9704,2.9704,2.9756,2.9758,2.976,0,0,0,0,0,0,0,0,0,0,0,0,0,2.9554,2.9556,2.9658,2.9658,2.9659,2.9709,2.971,2.971,2.9706,2.9705,2.9704,2.9703,2.9755,2.9757,2.976,0,0,0,0,0,0,0,0,0,0,0,0,0,2.9602,2.9557,2.9658,2.9663,2.9664,2.9709,2.971,2.9711,2.9706,2.9705,2.9704,2.9703,2.9754,2.9757,2.976,2.9803,0,0,2.977,2.9771,0,0,0,0,0,0,0,0,2.9599,2.9606,2.9661,2.9663,2.9664,2.97,2.9692,2.9742,2.9707,2.969,2.9704,2.9702,2.9738,2.9742,2.9755,2.9806,2.9808,2.977,2.9772,2.9773,2.9774,0,0,0,0,0,0,0,2.9596,2.9603,2.9678,2.9662,2.9664,2.9662,2.9668,2.9702,2.972,2.9691,2.9691,2.9697,2.9738,2.9752,2.9756,2.9809,2.977,2.9773,2.9775,2.9776,2.9897,2.9898,0,0,0,0,0,0,2.9591,2.9601,2.9676,2.968,2.9628,2.9665,2.9671,2.9689,2.972,2.9723,2.9698,2.9697,2.9747,2.9752,2.9758,2.981,2.9773,2.9776,2.9778,2.9895,2.9897,2.9898,0,0,0,0,0,0,2.9589,2.9598,2.9674,2.964,2.965,2.9668,2.9689,2.9691,2.9704,2.9725,2.9728,2.9709,2.9746,2.9753,2.9792,2.9811,2.9778,2.9781,2.9894,2.9896,2.9898,2.9914,0,0,0,0,0,0,2.9586,2.9598,2.9614,2.9641,2.9652,2.9708,2.969,2.9693,2.971,2.9709,2.9735,2.9739,2.9746,2.9787,2.9795,2.9815,2.9783,2.9892,2.9895,2.9897,2.9912,2.9916,2.992,0,0,0,0,0,2.9583,2.9617,2.9615,2.9625,2.9673,2.9709,2.9716,2.9723,2.9711,2.9728,2.9741,2.9738,2.9808,2.9791,2.98,2.9821,2.9891,2.9894,2.9897,2.991,2.9916,2.992,0,0,0,0,0,0,2.9593,2.9621,2.9619,2.9663,2.9684,2.9709,2.973,2.9729,2.9753,2.9751,2.9759,2.9765,2.9804,2.9816,2.9797,2.9864,2.9848,2.9853,2.9855,2.986,2.9864,2.9861,2.9786,0,0,0,0,0,2.96,2.9628,2.965,2.9687,2.9697,2.9712,2.9728,2.9732,2.9754,2.9763,2.9779,2.98,2.9826,2.9844,2.987,2.9913,2.9919,2.9932,2.9936,2.994,2.9944,2.9968,2.9974,2.9908,2.9908,2.9908,0,0,2.9616,2.9634,2.9651,2.9689,2.9706,2.9734,2.9719,2.975,2.977,2.9767,2.9805,2.9817,2.9841,2.9882,2.9901,2.9894,2.9963,2.9944,2.9946,2.9949,2.9971,2.9978,2.9983,2.991,2.991,2.9909,0,0,2.9658,2.9675,2.9707,2.9724,2.9749,2.9759,2.9766,2.9791,2.9799,2.9837,2.9835,2.9859,2.9905,2.9922,2.9937,2.9985,2.9982,2.9993,3.0015,3.0038,3.0043,3.0048,3.0065,3.0071,2.9997,2.9997,2.9997,0,2.9674,2.9716,2.9724,2.9754,2.9771,2.9769,2.9801,2.9817,2.985,2.9861,2.9852,2.9909,2.9925,2.997,2.9982,2.9994,3.0003,2.999,3.0042,3.0047,3.0051,3.0067,3.0074,2.9998,2.9998,2.9998,2.9998,0,2.9735,2.9764,2.9787,2.9818,2.9837,2.9868,2.988,2.9898,2.99,2.991,2.9948,2.9967,2.9997,3.0008,3.001,3.0053,3.0047,3.004,3.0024,3.0058,3.0074,3.008,3.0,2.9999,2.9999,2.9999,0,0,2.9786,2.982,2.9829,2.9843,2.987,2.9893,2.9923,2.9952,2.9968,2.999,3.0015,3.0054,3.0047,3.0064,3.0068,3.0088,3.0124,3.0078,3.0078,3.0086,3.0172,3.0178,3.0185,3.0122,3.0123,3.0124,3.017,0,2.9831,2.9886,2.9893,2.9942,2.9969,2.9967,2.9994,3.0013,3.0023,3.0047,3.0057,3.0085,3.0073,3.0083,3.0103,3.0115,3.0142,3.0112,3.0146,3.0147,3.0141,3.0193,3.02,3.0242,3.0176,3.0177,3.0178,0,2.9892,2.9916,2.9967,2.999,3.0002,3.0026,3.0052,3.0075,3.0097,3.0102,3.0121,3.0122,3.0153,3.0135,3.0178,3.0158,3.0172,3.018,3.0181,3.0185,3.0165,3.0199,3.0256,3.0263,3.0188,3.0187,3.0186,0,2.9925,2.9969,3.0006,3.0018,3.0046,3.0062,3.0075,3.0095,3.0112,3.0135,3.0145,3.0172,3.0186,3.0206,3.0214,3.02,3.0256,3.0239,3.0262,3.0262,3.0274,3.0273,3.0335,3.0283,3.0282,3.0282,3.0282,0,2.9975,3.0006,3.0021,3.0043,3.0078,3.0085,3.0119,3.0131,3.0149,3.0173,3.0173,3.0195,3.0204,3.0228,3.0235,3.0269,3.0275,3.0281,3.0282,3.0281,3.028,3.0291,3.0288,3.0284,3.0284,3.0283,3.0283,0,3.0018,3.0028,3.0068,3.0091,3.0097,3.0122,3.0141,3.0163,3.0172,3.0202,3.021,3.0224,3.0252,3.0262,3.0296,3.03,3.034,3.0339,3.0333,3.0334,3.0356,3.0354,3.0427,3.0436,3.0377,3.0378,3.0378,0,3.0049,3.0074,3.0099,3.0115,3.0128,3.0154,3.0171,3.0179,3.0196,3.0222,3.024,3.0268,3.0291,3.0335,3.0349,3.0375,3.0374,3.0398,3.0378,3.0376,3.0375,3.0373,3.0376,3.0402,3.0402,3.0403,3.0403,0,3.0105,3.0108,3.0133,3.0159,3.0179,3.02,3.0221,3.0234,3.0244,3.0264,3.0293,3.031,3.0345,3.0372,3.0398,3.041,3.0409,3.0409,3.0416,3.0415,3.0411,3.0414,3.0344,3.0408,3.0407,3.0407,3.0407,3.0406,3.0143,3.0164,3.0185,3.0212,3.0228,3.0247,3.0268,3.028,3.0304,3.0333,3.0335,3.0366,3.0386,3.0421,3.0434,3.0458,3.0452,3.0461,3.0464,3.0466,3.0468,3.0407,3.0463,3.0463,3.0463,3.0463,3.0463,0,3.0198,3.0212,3.0236,3.0265,3.0286,3.0282,3.0304,3.0322,3.0349,3.0368,3.039,3.0423,3.0449,3.0464,3.0491,3.0507,3.0506,3.0513,3.0513,3.0515,3.0472,3.0464,3.0513,3.0513,3.0513,3.0513,3.0513,3.0513,3.023,3.0265,3.0272,3.0315,3.0328,3.0358,3.0371,3.0388,3.0403,3.044,3.0462,3.0471,3.0488,3.0516,3.054,3.0543,3.0553,3.0561,3.0564,3.0524,3.0518,3.0513,3.0506,3.0563,3.0563,3.0605,3.0605,3.0605]}]]